Вернуться в каталог

COSMOS 1677

АктивенВоенныеLEO
NORAD 15986·PAYLOAD·🇷🇺 Russia

Запущен Aug 23, 1985 с Baikonur Cosmodrome

Loading…

Ближайшие Пролёты (ближайшие 24 часа)

TLE

СвежийSource: Space-Track

Эпоха: Sep 14, 2026, 11:03 UTC

1 15986U 85075A   26257.46085042 -.00000093  00000-0 -11681-5 0  9991
2 15986  64.6820  71.0677 0070179 332.9992  26.7422 13.86703934 70268

Отслеживайте COSMOS 1677 в реальном времени с AllMySat

Download on the App Store